Location: Caltech
(34.1382°N, 118.1253°W)
Time: 11:53:10
(UTC-07:00)

A-11 Canister half - All Passes

Search period start: 01 October 2016 00:00
Search period end: 11 October 2016 00:00
Orbit: 1517 x 1683 km, 47.2° (Epoch: 30 September)

Date Brightness Start Highest point End Pass type
(mag) Time Alt. Az. Time Alt. Az. Time Alt. Az.
01 Oct - 00:30:30 10° WNW 00:39:45 75° SW 00:49:12 10° SE visible
01 Oct - 02:37:35 10° W 02:43:35 19° SW 02:49:41 10° SSW night (unlit)
01 Oct - 15:44:40 10° SSW 15:53:31 44° SE 16:02:08 10° ENE daylight
01 Oct - 17:48:46 10° WSW 17:58:10 66° NNW 18:07:23 10° NE daylight
01 Oct - 19:56:02 10° WNW 20:04:30 37° N 20:12:55 10° ENE visible
01 Oct - 22:02:34 10° NW 22:11:22 45° NNE 22:20:13 10° E visible
02 Oct - 00:07:36 10° NW 00:16:52 79° SW 00:26:19 10° SE visible
02 Oct - 02:14:22 10° W 02:20:45 21° SW 02:27:16 10° S night (unlit)
02 Oct - 15:21:57 10° SSW 15:30:40 41° SE 15:39:10 10° ENE daylight
02 Oct - 17:25:46 10° WSW 17:35:13 69° NNW 17:44:29 10° NE daylight
02 Oct - 19:32:58 10° WNW 19:41:29 38° N 19:49:56 10° ENE visible
02 Oct - 21:39:38 10° NW 21:48:23 44° NNE 21:57:10 10° E visible
02 Oct - 23:44:41 10° NW 23:53:59 83° SW 00:03:26 10° SE visible
03 Oct - 01:51:12 10° W 01:57:56 23° SW 02:04:48 10° S night (unlit)
03 Oct - 14:59:14 10° SSW 15:07:49 38° SE 15:16:11 10° ENE daylight
03 Oct - 17:02:47 10° WSW 17:12:18 72° NNW 17:21:36 10° NE daylight
03 Oct - 19:09:54 10° WNW 19:18:29 38° N 19:26:58 10° ENE visible
03 Oct - 21:16:42 10° NW 21:25:24 43° NNE 21:34:07 10° E visible
03 Oct - 23:21:47 10° NW 23:31:05 88° SW 23:40:32 10° SE visible
04 Oct - 01:28:04 10° WNW 01:35:07 25° SW 01:42:18 10° S night (unlit)
04 Oct - 14:36:32 10° SSW 14:44:59 35° SE 14:53:11 10° ENE daylight
04 Oct - 16:39:48 10° WSW 16:49:22 76° NW 16:58:43 10° NE daylight
04 Oct - 18:46:51 10° WNW 18:55:28 39° N 19:03:59 10° NE visible
04 Oct - 20:53:44 10° NW 21:02:25 42° NNE 21:11:04 10° E visible
04 Oct - 22:58:54 10° NW 23:08:12 88° NE 23:17:37 10° SE visible
05 Oct - 01:04:58 10° WNW 01:12:17 27° SW 01:19:45 10° S night (unlit)
05 Oct - 14:13:53 10° S 14:22:08 33° SE 14:30:09 10° ENE daylight
05 Oct - 16:16:50 10° WSW 16:26:28 80° NW 16:35:49 10° NE daylight
05 Oct - 18:23:47 10° W 18:32:28 40° NNW 18:41:02 10° NE daylight
05 Oct - 20:30:47 10° NW 20:39:25 41° NNE 20:48:01 10° E visible
05 Oct - 22:36:00 10° NW 22:45:18 84° NE 22:54:42 10° SE visible
06 Oct - 00:41:53 10° WNW 00:49:28 29° SW 00:57:10 10° S visible
06 Oct - 13:51:14 10° S 13:59:17 30° SE 14:07:06 10° ENE daylight
06 Oct - 15:53:53 10° SW 16:03:33 83° NW 16:12:56 10° NE daylight
06 Oct - 18:00:43 10° W 18:09:28 41° NNW 18:18:04 10° NE daylight
06 Oct - 20:07:49 10° NW 20:16:25 40° NNE 20:24:58 10° E visible
06 Oct - 22:13:05 10° NW 22:22:23 80° NE 22:31:46 10° ESE visible
07 Oct - 00:18:50 10° WNW 00:26:38 32° SW 00:34:33 10° S visible
07 Oct - 13:28:38 10° S 13:36:27 28° SE 13:44:03 10° ENE daylight
07 Oct - 15:30:57 10° SW 15:40:38 87° NW 15:50:03 10° NE daylight
07 Oct - 17:37:38 10° W 17:46:28 42° NNW 17:55:08 10° NE daylight
07 Oct - 19:44:50 10° NW 19:53:25 39° N 20:01:56 10° ENE visible
07 Oct - 21:50:11 10° NW 21:59:29 76° NE 22:08:50 10° ESE visible
07 Oct - 23:55:48 10° WNW 00:03:48 34° SW 00:11:56 10° S visible
08 Oct - 13:06:03 10° S 13:13:36 26° SE 13:20:57 10° ENE daylight
08 Oct - 15:08:00 10° SW 15:17:44 88° SE 15:27:09 10° NE daylight
08 Oct - 17:14:34 10° W 17:23:28 43° NNW 17:32:12 10° NE daylight
08 Oct - 19:21:51 10° WNW 19:30:25 38° N 19:38:53 10° ENE visible
08 Oct - 21:27:17 10° NW 21:36:34 73° NNE 21:45:52 10° ESE visible
08 Oct - 23:32:47 10° WNW 23:40:58 37° SW 23:49:16 10° SSE visible
09 Oct - 12:43:32 10° S 12:50:46 24° SE 12:57:50 10° ENE daylight
09 Oct - 14:45:05 10° SW 14:54:49 84° SE 15:04:15 10° NE daylight
09 Oct - 16:51:30 10° W 17:00:28 44° NNW 17:09:16 10° NE daylight
09 Oct - 18:58:51 10° WNW 19:07:24 38° N 19:15:51 10° ENE visible
09 Oct - 21:04:23 10° NW 21:13:38 69° NNE 21:22:54 10° ESE visible
09 Oct - 23:09:47 10° WNW 23:18:08 40° SW 23:26:35 10° SSE visible
10 Oct - 12:21:02 10° S 12:27:56 22° SE 12:34:40 10° E daylight
10 Oct - 14:22:10 10° SW 14:31:55 80° SE 14:41:21 10° NE daylight
10 Oct - 16:28:25 10° W 16:37:29 45° NNW 16:46:21 10° NE daylight
10 Oct - 18:35:51 10° WNW 18:44:24 37° N 18:52:48 10° ENE visible
10 Oct - 20:41:28 10° NW 20:50:44 66° NNE 20:59:56 10° ESE visible
10 Oct - 22:46:48 10° WNW 22:55:18 42° SW 23:03:53 10° SSE visible
